Hourly Data Report for October 02, 2016

All times are specified in Local Standard Time (LST). Add 1 hour to adjust for Daylight Saving Time where and when it is observed.

PETAWAWA AWOS 2
ONTARIO

45°57'00.000" N
77°19'00.000" W
130.10 m
6106396
71625
YWA

Download Data

Hourly Data (October 2016)
Hourly Data Report for October 2, 2016
Temp Definition
°C
Dew Point Temp Definition
°C
Rel Hum Definition
%
Wind Dir Definition
10's deg

Wind Spd Definition
km/h
Visibility Definition
km
Stn Press Definition
kPa
Hmdx Definition


Wind Chill Definition


Weather Definition


TIME
00:00 15.0 9.7 71 12 6 14.5 100.40     Rain
01:00 13.2 11.8 91 10 7 5.6 100.37     Moderate Rain
02:00 12.7 11.1 90   0 14.5 100.34     Rain
03:00 12.7 11.4 92 9 11 14.5 100.26     LegendNANA
04:00 12.4 11.5 94 25 4 14.5 100.25     Rain
05:00 12.1 11.8 98 9 11 9.7 100.23     Drizzle
06:00 12.0 11.8 99 9 7 14.5 100.21     LegendNANA
07:00 11.9 11.9 100 9 6 2.6 100.19     Rain
08:00 12.4 12.2 99 10 7 14.5 100.15     LegendNANA
09:00 12.7 12.7 100 9 9 6.4 100.12     LegendNANA
10:00 13.2 13.2 100 10 6 3.7 100.10     Drizzle
11:00 13.4 13.4 100 9 7 2.9 100.08     Drizzle
12:00 14.3 13.7 96 13 4 14.5 100.05     LegendNANA
13:00 14.6 13.8 95 14 7 14.5 99.98     LegendNANA
14:00 14.7 13.9 95 10 4 14.5 99.94     LegendNANA
15:00 15.2 14.1 93   0 14.5 99.92     LegendNANA
16:00 14.9 14.2 96 36 6 14.5 99.89     LegendNANA
17:00 14.9 14.4 97 13 7 14.5 99.89     LegendNANA
18:00 14.9 14.4 97 32 4 14.5 99.94     LegendNANA
19:00 14.6 14.3 98 34 7 14.5 99.93     LegendNANA
20:00 14.6 14.3 98 28 4 14.5 99.96     LegendNANA
21:00 14.6 14.2 97   0 14.5 99.98     LegendNANA
22:00 14.6 14.1 97 4 6 14.5 99.96     LegendNANA
23:00 14.6 13.7 94 34 7 14.5 99.97     LegendNANA

Notes on Data Quality.

Legend

  • E = Estimated
  • M = Missing
  • NA = Not Available
  • ‡ = Partner data that is not subject to review by the National Climate Archives
Date modified: